Content
SEND FEEDBACK

Daily
Averages
Monthly
Summary
Philippines

QUEZON CITY, PHILIPPINES


Home > Asia > Philippines
Elevation: 151 feet     Latitude: 14 39N     Longitude: 121 03E

WEATHER
 
SELECT A DAY
Number of Records: 172,358;   Date Range: 7/1/96 - 7/20/14
 
SHARE

PRINT THIS DATA

[ ← Previous Day ]
WEATHER ALMANAC - JUNE 21, 2013
[ Next Day → ]
[ °C ]   °F
Weather ElementAverageHighLow
Temperature81.6 °F89 °F (11:00 am)78.8 °F (1:00 am)
Dewpoint76.6 °F79 °F (8:00 pm)69.8 °F (12:00 pm)
Humidity84.8 %100 % (5:00 pm)55 % (12:00 pm)
Barometer29.74 in29.81 in (11:00 pm)29.71 in (2:00 am)
Wind Speed4.8 mph9.2 mph (1:00 pm)
Weather ElementAverage
Visibility5.9 mi
Wind DirectionESE (106.5 °)

Weather ElementTotal
Precipitation---
Cooling Degree Days18.9 (Base 65)
Growing Degree Days33.9 (Base 50)
Averaged from 32 records on June 21, 2013
WEATHER CONDITIONS BREAKOUT
WIND DIRECTION BREAKOUT
WEATHER BY HOUR - JUNE 21, 2013
[ °C ]   °F
Local TimeTemperatureDewpointHumidityBarometerVisibilityWind DirectionWind SpeedGust SpeedPrecipitationEventsConditions
1:00 AM78.8 °F75.2 °F89 %29.74 in6.2 miSSW (200°)5.8 mphScattered Clouds
2:00 AM79.0 °F76.0 °F86 %29.73 in6.0 miSouth (180°)2.2 mphHaze
2:00 AM78.8 °F75.2 °F89 %29.71 in6.2 miVariable2.3 mphMostly Cloudy
3:00 AM78.8 °F75.2 °F89 %29.71 in6.2 miVariable2.3 mphScattered Clouds
4:00 AM78.8 °F77.0 °F94 %29.71 in6.2 miVariable4.6 mphScattered Clouds
5:00 AM80.0 °F78.0 °F93 %29.73 in6.0 miSSE (150°)6.7 mphHaze
5:00 AM80.6 °F75.2 °F84 %29.71 in6.2 miSSE (150°)5.8 mphOvercast
6:00 AM80.6 °F73.4 °F79 %29.71 in6.2 miSSE (150°)3.5 mphOvercast
7:00 AM80.6 °F75.2 °F84 %29.74 in6.2 miSouth (170°)5.8 mphMostly Cloudy
8:00 AM83.0 °F74.0 °F66 %29.75 in6.0 miSSE (150°)4.5 mphHaze
8:00 AM82.4 °F73.4 °F74 %29.74 in6.2 miSSE (150°)5.8 mphMostly Cloudy
9:00 AM84.2 °F75.2 °F74 %29.77 in6.2 miSE (130°)4.6 mphMostly Cloudy
10:00 AM87.8 °F77.0 °F70 %29.77 in6.2 miSSE (150°)5.8 mphMostly Cloudy
11:00 AM89.0 °F78.0 °F62 %29.77 in6.0 miSE (130°)6.7 mphHaze
11:00 AM87.8 °F77.0 °F70 %29.74 in6.2 miSE (130°)6.9 mphMostly Cloudy
12:00 PM87.8 °F69.8 °F55 %29.74 in6.2 miSE (130°)8.1 mphMostly Cloudy
1:00 PM87.8 °F77.0 °F70 %29.71 in6.2 miESE (110°)9.2 mphMostly Cloudy
2:00 PM85.0 °F76.0 °F69 %29.73 in6.0 miENE (70°)2.2 mphHaze
2:00 PM86.0 °F77.0 °F74 %29.71 in6.2 miENE (70°)2.3 mphMostly Cloudy
2:10 PM82.4 °F78.8 °F89 %29.71 in3.1 miNNE (20°)5.8 mphRainLight Rain Showers
3:00 PM80.6 °F77.0 °F89 %29.71 in6.2 miENE (70°)8.1 mphMostly Cloudy
4:00 PM82.4 °F78.8 °F89 %29.71 in6.2 miEast (90°)5.8 mphOvercast
5:00 PM79.0 °F78.0 °F98 %29.71 in5.0 miSSE (150°)6.7 mphRainLight Rain
5:00 PM78.8 °F78.8 °F100 %29.71 in5.0 miSSE (150°)5.8 mphRainLight Rain
6:00 PM78.8 °F78.8 °F100 %29.71 in5.0 miSSE (150°)5.8 mphRainLight Rain
7:00 PM78.8 °F78.8 °F100 %29.74 in6.2 miESE (110°)5.8 mphRainLight Rain
8:00 PM80.0 °F79.0 °F96 %29.78 in6.0 miEast (100°)4.5 mphRainLight Rain
8:00 PM78.8 °F78.8 °F100 %29.77 in6.2 miEast (100°)5.8 mphRainLight Rain
9:00 PM78.8 °F78.8 °F100 %29.77 in6.2 miSE (140°)3.5 mphOvercast
10:00 PM78.8 °F77.0 °F94 %29.77 in6.2 miVariable2.3 mphMostly Cloudy
11:00 PM79.0 °F77.0 °F93 %29.81 in6.0 miCalmHaze
11:00 PM78.8 °F77.0 °F94 %29.77 in6.2 miCalmMostly Cloudy
Hourly data recorded from RPLL, located miles away from Quezon City, Philippines







STORIES FROM OUR PARTNERS